Weather Roundup
Issued by NWS

Home | Current Version | Previous Version | Graphics & Text | Print | Product List | Glossary Off
Versions: 1 2 3 4 5 6 7 8 9 10 11 12 13 14 15 16 17 18 19 20 21 22 23 24 25 26 27 28 29 30 31 32 33 34 35 36 37 38 39 40 41 42 43 44 45 46 47 48 49 50

000
NZUS93 KARX 230710
HRRWXR

CURRENT HOURLY OBSERVATIONS ACROSS
MUCH OF THE UPPER MISSISSIPPI VALLEY
NATIONAL WEATHER SERVICE LA CROSSE WI
200 AM CDT WED JUL 23 2014


...SOUTHEAST MINNESOTA...


CITY           SKY/WX    TMP DP  RH WIND       PRES   REMARKS
ROCHESTER      CLEAR     64  56  75 N8        30.18R
ROCHESTER/MAYO FAIR      66  55  67 CALM      30.17R
WINONA         PTCLDY    70  63  78 CALM      30.15R
AUSTIN         CLEAR     63  55  77 N5        30.17S
ALBERT LEA     CLEAR     64  55  72 N5        30.18R
DODGE CENTER   CLEAR     63  57  82 N3        30.18R
PRESTON        CLEAR     63  62  95 N5        30.17R
OWATONNA       CLEAR     61  55  82 N6        30.18S
FARIBAULT      CLEAR     64  55  72 N3        30.18S
$$

...ELSEWHERE IN MINNESOTA...


CITY           SKY/WX    TMP DP  RH WIND       PRES   REMARKS
MINNEAPOLIS    CLEAR     69  56  62 N9        30.18R
INTNL FALLS    CLEAR     60  54  80 NE5       30.22R
DULUTH         PTCLDY    60  52  74 NW5       30.19R
RED WING       CLEAR     68  57  68 NE5       30.15R
REDWOOD FALLS  CLEAR     65  57  75 NW7       30.22S
MANKATO        CLEAR     63  54  72 N7        30.20R
WORTHINGTON    CLEAR     59  55  88 N5        30.25S
FAIRMONT       CLEAR     63  54  72 N7        30.21S
$$

...SOUTHWEST WISCONSIN...


CITY           SKY/WX    TMP DP  RH WIND       PRES   REMARKS
LA CROSSE      CLEAR     70  59  68 NE6       30.14R
PRAIRIE DU CHI CLEAR     71  61  70 NE6       30.12R
BOSCOBEL       CLEAR     69  61  75 CALM      30.13R
LONE ROCK      CLEAR     71  60  68 N5        30.13R
PLATTEVILLE    CLEAR     66  63  90 N5        30.12R
FORT MC COY    CLEAR     62  56  80 CALM      30.16R
CAMP DOUGLAS   CLEAR     59  59 100 CALM      30.15R
VIROQUA        FAIR      64  58  82 NE6       30.16R
WIS DELLS      CLEAR     65  57  74 NE5       30.14R
$$

...ELSEWHERE IN WISCONSIN...


CITY           SKY/WX    TMP DP  RH WIND       PRES   REMARKS
MILWAUKEE      PTCLDY    61  55  81 N12       30.09S
MADISON        CLEAR     69  60  73 N12       30.12R
GREEN BAY      CLEAR     61  56  83 N6        30.12R
EAU CLAIRE     CLEAR     61  59  93 N3        30.16R
BLACK RVR FLS  FAIR      58  57  96 CALM      30.15R
MEDFORD        CLEAR     57  56  97 N3        30.17S
WAUSAU         CLEAR     61  57  87 N6        30.14R
WIS RAPIDS     CLEAR     64  58  80 NE6       30.16R
MARSHFIELD     CLEAR     61  57  87 N5        30.16R
RICE LAKE      CLEAR     58  56  93 CALM      30.20R
$$

...NORTHEAST IOWA...


CITY           SKY/WX    TMP DP  RH WIND       PRES   REMARKS
WATERLOO       CLEAR     66  63  90 NW6       30.12R
DUBUQUE        CLEAR     71  63  75 N12       30.11R
DECORAH        CLEAR     68  63  83 N6        30.14R
MASON CITY     CLEAR     61  57  87 NW7       30.19R
CHARLES CITY   CLEAR     64  61  88 N6        30.16R
OELWEIN        CLEAR     64  63  94 NW6       30.14R
$$

...ELSEWHERE IN IOWA...


CITY           SKY/WX    TMP DP  RH WIND       PRES   REMARKS
DES MOINES     CLEAR     74  61  63 N10       30.14R
IOWA CITY      CLEAR     74  66  76 N9        30.10R
FORT DODGE     CLEAR     64  57  77 N5        30.20R
MARSHALLTOWN   CLEAR     66  63  90 N9        30.14R
CEDAR RAPIDS   CLEAR     69  64  84 N7        30.09R
$$

...NORTHERN ILLINOIS...


CITY           SKY/WX    TMP DP  RH WIND       PRES   REMARKS
CHICAGO-OHARE  MOCLDY    69  59  70 N22G31    30.02S
DUPAGE         CLOUDY    72  63  73 NE20G26   30.03R
CHICAGO-MIDWAY CLOUDY    73  66  78 N20G30    30.03R
MOLINE         CLEAR     76  67  73 N8        30.06R
ROCKFORD       PTCLDY    74  63  68 N15       30.07R
STERLING       MOCLDY    73  66  78 NE7       30.06R
PEORIA         MOCLDY    80  74  81 NW6       30.01S
$$

NOTE: "FAIR" INDICATES FEW OR NO CLOUDS BELOW 12,000 FEET WITH NO
SIGNIFICANT WEATHER AND/OR OBSTRUCTIONS TO VISIBILITY. WIND
SPEEDS ARE IN MILES-PER-HOUR.



USA.gov is the U.S. government's official web portal to all federal, state and local government web resources and services.